EW3156 Weather Reports


Display with metric or nautical units.
time (UTC)temp
F
wind
direction
speed
MPH
gust
MPH
rain 1hr
in
rain 24hr
in
rain mn
in
humidity
%
barometer
mb
20260905123003 74 70 0.0 0.0 0.00 0.00 0.00 98 1014.0
20260905121601 74 70 0.0 1.0 0.00 0.00 0.00 98 1013.7
20260905120058 73 70 0.0 0.0 0.00 0.00 0.00 98 1013.6
20260905114626 73 70 0.0 0.0 0.00 0.00 0.00 97 1013.6
20260905113056 73 70 0.0 1.0 0.00 0.00 0.00 97 1013.5
20260905111554 74 70 0.0 0.0 0.00 0.00 0.00 97 1013.3
20260905110050 74 70 0.0 0.0 0.00 0.00 0.00 97 1013.3
20260905104552 74 70 0.0 0.0 0.00 0.00 0.00 96 1013.3
20260905103149 74 70 0.0 0.0 0.00 0.00 0.00 96 1013.2
20260905101548 74 70 0.0 1.0 0.00 0.00 0.00 96 1013.2
20260905094544 74 70 0.0 0.0 0.00 0.00 0.00 96 1013.0
20260905093044 74 70 0.0 1.0 0.00 0.00 0.00 95 1013.0
20260905091555 75 70 0.0 0.0 0.00 0.00 0.00 95 1013.0
20260905090040 75 70 0.0 1.0 0.00 0.00 0.00 94 1013.1
20260905084540 75 70 0.0 0.0 0.00 0.00 0.00 93 1013.0
20260905083037 75 70 0.0 0.0 0.00 0.00 0.00 93 1012.9
20260905081535 76 70 0.0 1.0 0.00 0.00 0.00 92 1012.8
20260905080039 76 70 0.0 1.0 0.00 0.00 0.00 91 1012.7
20260905074543 77 70 0.0 1.0 0.00 0.00 0.00 90 1012.8
20260905073051 77 70 0.0 1.0 0.00 0.00 0.00 90 1012.6
20260905071533 76 97 0.0 0.0 0.00 0.00 0.00 91 1012.4
20260905070032 76 97 0.0 0.0 0.00 0.00 0.00 91 1012.5
20260905064529 76 97 0.0 0.0 0.00 0.00 0.00 92 1012.5
20260905063028 77 97 0.0 0.0 0.00 0.00 0.00 92 1012.7
20260905061526 77 97 0.0 0.0 0.00 0.00 0.00 92 1012.7
20260905060025 77 97 0.0 0.0 0.00 0.00 0.00 92 1012.9
20260905054524 77 97 0.0 0.0 0.00 0.00 0.00 92 1012.8
20260905053032 78 97 0.0 0.0 0.00 0.00 0.00 91 1012.8
20260905051521 78 97 0.0 1.0 0.00 0.00 0.00 91 1012.9
20260905050021 78 97 0.0 1.0 0.00 0.00 0.00 90 1012.8
20260905044520 78 97 0.0 1.0 0.00 0.00 0.00 90 1013.0
20260905043017 78 97 0.0 0.0 0.00 0.00 0.00 89 1012.9
20260905041516 79 98 0.0 0.0 0.00 0.00 0.00 88 1012.9
20260905040019 79 97 0.0 0.0 0.00 0.00 0.00 87 1012.9
20260905034514 80 98 0.0 0.0 0.00 0.00 0.00 86 1013.0
20260905033026 80 97 0.0 0.0 0.00 0.00 0.00 86 1013.0
20260905031521 80 97 0.0 0.0 0.00 0.00 0.00 85 1013.0
20260905030012 81 98 0.0 0.0 0.00 0.00 0.00 84 1013.2
20260905024512 81 97 0.0 0.0 0.00 0.00 0.00 83 1013.4
20260905023036 82 97 0.0 0.0 0.00 0.00 0.00 82 1013.4
20260905021511 83 98 0.0 0.0 0.00 0.00 0.00 80 1013.4
20260905020019 83 97 0.0 0.0 0.00 0.00 0.00 79 1013.3
20260905014510 83 98 0.0 0.0 0.00 0.00 0.00 77 1013.2
20260905013009 84 98 0.0 0.0 0.00 0.00 0.00 76 1013.1
20260905011508 85 98 0.0 0.0 0.00 0.00 0.00 74 1012.8
20260905010008 86 98 0.0 0.0 0.00 0.00 0.00 72 1012.7
20260905004509 87 97 0.0 0.0 0.00 0.00 0.00 69 1012.7
20260905003007 88 98 0.0 0.0 0.00 0.00 0.00 67 1012.7
20260905001516 89 97 0.0 1.0 0.00 0.00 0.00 65 1012.6
20260905000005 90 97 0.0 1.0 0.00 0.00 0.00 64 1012.7
20260904234507 91 98 0.0 0.0 0.00 0.00 0.00 62 1012.7
20260904233004 92 98 0.0 1.0 0.00 0.00 0.00 61 1012.6
20260904231508 93 97 0.0 2.0 0.00 0.00 0.00 59 1012.5
20260904230105 94 98 0.0 2.0 0.00 0.00 0.00 58 1012.2
20260904224503 94 98 1.0 3.0 0.00 0.00 0.00 56 1012.2
20260904223004 94 93 0.0 4.0 0.00 0.00 0.00 55 1012.0
20260904221505 95 80 2.0 6.0 0.00 0.00 0.00 56 1012.0
20260904220001 95 107 1.0 3.0 0.00 0.00 0.00 56 1012.0
20260904214600 95 112 2.0 4.0 0.00 0.00 0.00 55 1012.0
20260904213059 95 68 1.0 8.0 0.00 0.00 0.00 55 1012.0
20260904211601 96 137 1.0 4.0 0.00 0.00 0.00 55 1012.1
20260904210107 96 97 2.0 6.0 0.00 0.00 0.00 53 1012.1
20260904204557 96 57 3.0 10.0 0.00 0.00 0.00 54 1012.2
20260904203055 96 78 1.0 8.0 0.00 0.00 0.00 55 1012.3
20260904201554 96 63 3.0 7.0 0.00 0.00 0.00 53 1012.7
20260904200051 97 84 1.0 9.0 0.00 0.00 0.00 53 1012.9
20260904194555 97 116 0.0 3.0 0.00 0.00 0.00 54 1013.0
20260904193044 96 84 1.0 6.0 0.00 0.00 0.00 55 1013.3
20260904191544 94 90 2.0 6.0 0.00 0.00 0.00 58 1013.7
20260904190040 96 80 1.0 5.0 0.00 0.00 0.00 55 1013.8
20260904184536 94 86 2.0 8.0 0.00 0.00 0.00 58 1014.1
20260904183039 94 142 1.0 4.0 0.00 0.00 0.00 60 1014.3
20260904181535 94 128 1.0 8.0 0.00 0.00 0.00 59 1014.5
20260904180036 94 109 2.0 9.0 0.00 0.00 0.00 60 1014.8
20260904174557 93 267 1.0 4.0 0.00 0.00 0.00 63 1015.0
20260904173133 93 98 0.0 4.0 0.00 0.00 0.00 62 1015.1
20260904171533 94 130 2.0 6.0 0.00 0.00 0.00 60 1015.4
20260904170029 94 72 1.0 5.0 0.00 0.00 0.00 59 1015.4
20260904164525 93 277 1.0 6.0 0.00 0.00 0.00 62 1015.4
20260904163020 92 87 1.0 6.0 0.00 0.00 0.00 64 1015.8
20260904161519 91 93 1.0 7.0 0.00 0.00 0.00 65 1015.8
20260904160016 92 319 1.0 6.0 0.00 0.00 0.00 66 1016.0
20260904154511 90 83 1.0 4.0 0.00 0.00 0.00 66 1016.1
20260904153010 90 188 0.0 3.0 0.00 0.00 0.00 68 1015.9
20260904151508 90 101 0.0 3.0 0.00 0.00 0.00 68 1015.8
20260904150010 89 102 0.0 2.0 0.00 0.00 0.00 70 1015.8
20260904144600 88 119 0.0 2.0 0.00 0.00 0.00 72 1015.6
20260904143101 86 94 0.0 1.0 0.00 0.00 0.00 76 1015.5
20260904141554 85 94 0.0 2.0 0.00 0.00 0.00 80 1015.6
20260904140051 83 94 0.0 2.0 0.00 0.00 0.00 82 1015.6
20260904134547 81 94 0.0 3.0 0.00 0.00 0.00 86 1015.6
20260904133040 79 150 0.0 0.0 0.00 0.00 0.00 91 1015.6
20260904131537 78 150 0.0 0.0 0.00 0.00 0.00 95 1015.5
20260904130036 77 150 0.0 0.0 0.00 0.00 0.00 96 1015.5
20260904124537 77 150 0.0 0.0 0.00 0.00 0.00 97 1015.3